Location: Lahas
(43.5538°N, 0.8906°E)
Time: 19:52:01
(UTC+00:00)

Cosmos 1470 - Pass Details

Date: 15 May 2026
Orbit: 420 x 431 km, 82.5° (Epoch: 6 June)

Event Time Altitude Azimuth Distance (km) Brightness Sun altitude
Rises 22:45:32 0° 355° (N) 2,383 7.3 -25.5°
Reaches altitude 10° 22:47:36 10° 359° (N) 1,513 6.0 -25.6°
Enters shadow 22:49:18 27° 9° (N) 847 4.3 -25.7°
